Stations météo

réclame
Mon MeteoGroup
Le Havre/Octeville, France (7046): Température de l'air & dewpoint: 18.05.2019 03:00:00 - 24.05.2019 03:00:00 (CEST)Le Havre/Octeville, France (7046): Vitesse du vent & gusts: 18.05.2019 03:00:00 - 24.05.2019 03:00:00 (CEST)Le Havre/Octeville, France (7046): Direction du vent: 18.05.2019 03:00:00 - 24.05.2019 03:00:00 (CEST)Le Havre/Octeville, France (7046): reduced air pressure: 18.05.2019 03:00:00 - 24.05.2019 03:00:00 (CEST)Le Havre/Octeville, France (7046): visibility: 18.05.2019 03:00:00 - 24.05.2019 03:00:00 (CEST)Le Havre/Octeville, France (7046): Quantités de précipitations: 18.05.2019 03:00:00 - 24.05.2019 03:00:00 (CEST)
Date & Time tt [°C] td [°C] ff [km/h] ff [knt] fx [km/h] fx [knt] dd ppp [hPa] vv [km] rr [mm]
24.05.2019 03:00:00 9,6 7,7 10 5 14 8 W 1017,6 7 0,0
24.05.2019 02:00:00 9,1 7,4 10 5 12 6 WNW 1017,8 8 0,0
24.05.2019 01:00:00 9,7 7,0 8 5 12 6 WNW 1018,0 14 0,0
24.05.2019 00:00:00 9,2 5,4 0 0 5 3 N 1018,0 27 0,0
23.05.2019 23:00:00 11,1 5,0 3 2 6 4 NW 1017,9 32 0,0
23.05.2019 22:00:00 12,0 4,2 4 2 7 4 NW 1017,9 42 0,0
23.05.2019 21:00:00 13,6 3,6 8 4 14 8 NNW 1017,7 50 0,0
23.05.2019 20:00:00 14,5 4,2 13 7 18 10 NNW 1017,4 37 0,0
23.05.2019 19:00:00 14,7 7,3 10 5 19 10 NNE 1017,2 27 0,0
23.05.2019 18:00:00 14,8 7,6 5 3 27 15 ENE 1017,8 21 0,0
23.05.2019 17:00:00 15,9 11,5 18 10 24 13 N 1017,0 19 0,0
23.05.2019 16:00:00 17,6 10,0 18 10 27 15 NNW 1017,2 21 0,0
23.05.2019 15:00:00 21,3 11,6 14 7 25 13 W 1016,9 21 0,0
23.05.2019 14:00:00 21,2 9,4 16 8 28 15 SW 1017,3 22 0,0
23.05.2019 13:00:00 20,8 8,4 18 10 27 14 SSW 1017,6 22 0,0
23.05.2019 12:00:00 20,2 7,9 17 9 26 14 SSW 1018,0 24 0,0
23.05.2019 11:00:00 18,9 7,9 14 8 27 14 S 1018,0 19 0,0
23.05.2019 10:00:00 18,0 7,7 16 8 24 13 S 1018,1 17 0,0
23.05.2019 09:00:00 16,7 7,1 12 7 21 11 SSE 1018,2 17 0,0
23.05.2019 08:00:00 14,7 7,0 11 6 18 10 SSE 1018,3 23 0,0
23.05.2019 07:00:00 13,0 7,4 7 4 13 7 SE 1018,2 19 0,0
23.05.2019 06:00:00 11,4 6,5 7 4 14 7 SE 1018,4 25 0,0
23.05.2019 05:00:00 10,7 5,9 9 5 13 7 ESE 1018,6 28 0,0
23.05.2019 04:00:00 10,8 5,3 10 5 11 6 ESE 1018,9 27 0,0
23.05.2019 03:00:00 11,0 5,1 9 5 11 6 ESE 1019,2 29 0,0
23.05.2019 02:00:00 11,2 4,9 9 5 11 6 ESE 1019,5 28 0,0
23.05.2019 01:00:00 12,1 4,3 8 4 9 5 E 1019,8 31 0,0
23.05.2019 00:00:00 13,0 3,9 6 3 8 5 ESE 1020,0 34 0,0
22.05.2019 23:00:00 13,4 3,7 5 3 6 3 ESE 1020,3 37 0,0
22.05.2019 22:00:00 15,4 3,2 4 2 7 4 E 1020,0 39 0,0
22.05.2019 21:00:00 17,3 2,8 3 2 5 3 ENE 1020,0 20 0,0
22.05.2019 20:00:00 17,5 3,4 3 1 9 5 NNE 1020,3 43 0,0
22.05.2019 19:00:00 18,3 4,1 6 3 12 6 NNW 1020,3 43 0,0
22.05.2019 18:00:00 18,1 3,2 8 4 13 7 NNW 1020,6 38 0,0
22.05.2019 17:00:00 17,6 3,1 8 4 13 7 NNW 1020,8 46 0,0
22.05.2019 16:00:00 17,4 4,7 7 4 12 6 NNW 1021,2 43 0,0
22.05.2019 15:00:00 16,7 5,9 8 4 14 8 NNW 1021,5 20 0,0
22.05.2019 14:00:00 16,4 7,6 9 5 18 10 WNW 1021,5 20 0,0
22.05.2019 13:00:00 16,5 6,0 12 6 18 10 W 1021,7 44 0,0
22.05.2019 12:00:00 16,2 6,3 14 7 21 11 WSW 1021,6 51 0,0
22.05.2019 11:00:00 15,3 6,8 11 6 18 10 WSW 1021,2 60 0,0
22.05.2019 10:00:00 13,3 7,9 11 6 16 9 SW 1021,2 20 0,0
22.05.2019 09:00:00 12,1 7,6 9 5 14 7 SW 1021,1 20 0,0
22.05.2019 08:00:00 12,1 8,8 8 5 14 7 SSW 1020,8 13 0,0
22.05.2019 07:00:00 10,0 8,9 5 3 9 5 SSW 1020,9 5 0,0
22.05.2019 06:00:00 9,5 8,3 5 3 10 5 SSW 1020,8 9 0,0
22.05.2019 05:00:00 9,5 8,1 6 3 9 5 SW 1020,8 7 0,0
22.05.2019 04:00:00 10,0 9,1 5 3 13 7 SSW 1021,0 6 0,0
22.05.2019 03:00:00 9,1 8,2 10 5 11 6 W 1021,1 4,8 0,0
22.05.2019 02:00:00 9,0 8,2 10 5 11 6 W 1021,0 3,5 0,0
22.05.2019 01:00:00 9,6 8,5 8 5 13 7 WNW 1020,9 6 0,0
22.05.2019 00:00:00 10,8 9,2 4 2 8 4 WSW 1020,8 8 0,0
21.05.2019 23:00:00 11,3 8,7 4 2 14 8 SSW 1020,9 13 0,0
21.05.2019 22:00:00 10,8 7,3 10 6 14 8 NW 1020,6 17 0,0
21.05.2019 21:00:00 13,2 8,1 11 6 18 10 NNW 1020,2 18 0,0
21.05.2019 20:00:00 14,0 9,0 13 7 21 11 NNW 1019,9 8 0,0
21.05.2019 19:00:00 14,6 10,8 16 9 21 12 NNW 1019,6 14 0,0
21.05.2019 18:00:00 16,1 10,0 16 8 23 12 N 1019,4 13 0,0
21.05.2019 17:00:00 15,7 10,9 16 9 24 13 NNW 1019,4 13 0,0
21.05.2019 16:00:00 15,2 11,2 16 9 23 12 NNW 1019,6 13 0,0
21.05.2019 15:00:00 15,6 11,6 17 9 23 13 NW 1019,4 13 0,0
21.05.2019 14:00:00 14,8 11,9 17 9 22 12 NNW 1019,2 13 0,0
21.05.2019 13:00:00 14,5 12,2 14 8 20 11 WNW 1019,1 12 0,0
21.05.2019 12:00:00 14,7 12,6 11 6 16 9 W 1018,8 12 0,0
21.05.2019 11:00:00 13,9 11,9 8 4 14 8 WNW 1018,7 10 0,0
21.05.2019 10:00:00 13,0 11,7 10 5 20 11 WNW 1018,4 7 0,0
21.05.2019 09:00:00 12,3 11,4 14 8 24 13 W 1018,0 5 0,0
21.05.2019 08:00:00 12,1 11,2 14 8 20 11 WNW 1017,4 4,6 0,0
21.05.2019 07:00:00 11,8 11,2 12 7 18 10 W 1017,1 3,2 0,0
21.05.2019 06:00:00 11,3 10,5 13 7 19 11 W 1016,7 2,7 0,0
21.05.2019 05:00:00 11,4 10,6 11 6 14 8 W 1016,5 3,4 0,0
21.05.2019 04:00:00 11,0 9,7 7 4 8 5 W 1016,4 3,4 0,0
21.05.2019 03:00:00 11,4 10,5 5 3 16 8 NW 1016,5 3,8 0,0
21.05.2019 02:00:00 11,4 10,6 12 7 17 9 NW 1016,5 2,5 0,0
21.05.2019 01:00:00 11,4 10,8 12 7 18 10 NNW 1016,5 2,1 0,0
21.05.2019 00:00:00 11,4 10,6 8 4 15 8 NW 1016,5 1,6 0,0
20.05.2019 23:00:00 11,6 10,7 11 6 16 9 NW 1016,1 2,5 0,0
20.05.2019 22:00:00 11,2 9,9 8 5 11 6 NNW 1015,5 3,8 0,0
20.05.2019 21:00:00 12,2 10,6 8 4 23 12 N 1014,8 3,8 0,0
20.05.2019 20:00:00 13,2 10,2 13 7 18 10 NNW 1014,6 11 0,0
20.05.2019 19:00:00 15,1 9,0 13 7 21 12 N 1014,2 8 0,0
20.05.2019 18:00:00 14,6 10,6 18 10 22 12 N 1014,0 8 0,0
20.05.2019 17:00:00 15,1 11,5 14 7 21 11 NNW 1014,1 7 0,0
20.05.2019 16:00:00 15,1 11,9 14 8 23 12 NNW 1013,8 6 0,0
20.05.2019 15:00:00 14,8 12,7 13 7 18 10 NNW 1013,6 6 0,0
20.05.2019 14:00:00 14,5 12,7 13 7 19 10 NW 1013,3 7 0,0
20.05.2019 13:00:00 14,4 12,9 14 8 19 11 WNW 1013,0 7 0,0
20.05.2019 12:00:00 14,7 13,2 8 5 13 7 WNW 1012,8 8 0,0
20.05.2019 11:00:00 12,8 12,0 10 6 15 8 WNW 1012,8 4,8 0,0
20.05.2019 10:00:00 12,4 11,9 10 5 16 9 NW 1012,6 2,5 0,0
20.05.2019 09:00:00 12,2 11,7 13 7 18 10 WNW 1012,0 2,2 0,0
20.05.2019 08:00:00 11,8 11,3 11 6 16 9 NW 1011,4 1,2 0,0
20.05.2019 07:00:00 11,6 11,1 10 5 16 9 NW 1011,0 0,9 0,0
20.05.2019 06:00:00 11,5 10,9 7 4 16 9 W 1010,8 1,2 0,0
20.05.2019 05:00:00 11,4 10,8 6 3 14 8 WNW 1010,8 1,1 0,0
20.05.2019 04:00:00 11,3 10,4 8 4 10 6 WNW 1010,9 1,7 0,0
20.05.2019 03:00:00 10,3 8,9 0 0 4 2 N 1011,2 3,5 0,0
20.05.2019 02:00:00 10,5 8,6 4 2 14 8 ENE 1011,4 4,8 0,0
20.05.2019 01:00:00 10,8 9,9 9 5 15 8 N 1011,6 2,0 0,0
20.05.2019 00:00:00 11,0 9,9 11 6 20 11 N 1011,6 2,4 0,0
19.05.2019 23:00:00 10,7 9,6 14 7 22 12 N 1011,4 3,3 0,0
19.05.2019 22:00:00 11,1 10,2 13 7 22 12 N 1011,1 3,3 0,0
19.05.2019 21:00:00 11,5 10,2 16 9 22 12 N 1010,5 4,4 0,0
19.05.2019 20:00:00 12,0 10,7 16 8 23 13 N 1010,1 4,1 0,0
19.05.2019 19:00:00 11,6 10,3 16 9 21 11 N 1009,8 4,6 0,2
19.05.2019 18:00:00 11,6 10,5 14 8 21 11 N 1009,8 3,0 0,8
19.05.2019 17:00:00 11,6 10,7 16 9 25 13 N 1009,9 2,2 0,6
19.05.2019 16:00:00 12,7 10,6 18 10 26 14 N 1009,7 4,7 0,0
19.05.2019 15:00:00 12,6 10,5 18 10 26 14 N 1009,6 4,2 0,0
19.05.2019 14:00:00 12,5 10,9 16 9 24 13 N 1009,5 3,0 0,0
19.05.2019 13:00:00 12,3 11,2 19 10 23 13 N 1009,3 2,4 0,2
19.05.2019 12:00:00 12,4 11,6 15 8 21 12 N 1009,1 2,2 0,0
19.05.2019 11:00:00 12,2 11,4 11 6 21 11 N 1009,1 1,9 0,0
19.05.2019 10:00:00 11,8 11,2 14 7 18 10 N 1008,6 1,8 0,2
19.05.2019 09:00:00 11,5 10,9 10 5 14 7 N 1008,4 1,4 0,0
19.05.2019 08:00:00 11,4 10,8 9 5 18 10 N 1008,2 1,9 0,0
19.05.2019 07:00:00 11,0 10,4 14 8 20 11 NNW 1008,0 2,0 0,0
19.05.2019 06:00:00 10,9 10,4 14 8 19 10 N 1007,8 1,7 0,0
19.05.2019 05:00:00 10,9 10,4 13 7 18 10 N 1007,7 1,1 1,0
19.05.2019 04:00:00 10,8 10,3 13 7 18 10 N 1007,8 1,0 2,4
19.05.2019 03:00:00 10,9 10,3 14 7 19 10 N 1007,9 1,5 0,2
19.05.2019 02:00:00 11,0 10,4 11 6 16 9 N 1008,1 1,5 0,0
19.05.2019 01:00:00 10,9 10,3 11 6 19 10 N 1008,3 2,8 0,0
19.05.2019 00:00:00 10,8 10,3 13 7 19 11 N 1008,2 2,0 0,0
18.05.2019 23:00:00 11,2 10,7 11 6 15 8 N 1008,2 1,3 0,0
18.05.2019 22:00:00 11,3 10,8 8 4 18 10 N 1008,0 1,1 0,0
18.05.2019 21:00:00 11,4 10,9 11 6 21 11 N 1007,6 1,1 0,2
18.05.2019 20:00:00 11,6 10,8 14 8 19 11 N 1007,3 1,8 0,0
18.05.2019 19:00:00 12,0 10,7 13 7 19 10 NNW 1006,8 2,6 0,0
18.05.2019 18:00:00 12,1 11,0 14 8 21 11 N 1006,7 2,5 0,0
18.05.2019 17:00:00 12,6 11,2 13 7 17 9 NNW 1006,4 2,6 0,0
18.05.2019 16:00:00 12,7 10,9 12 6 18 10 NNW 1006,4 2,8 0,0
18.05.2019 15:00:00 12,1 10,8 11 6 17 9 N 1006,4 2,5 0,0
18.05.2019 14:00:00 11,9 10,6 11 6 16 9 N 1006,2 2,7 0,0
18.05.2019 13:00:00 12,1 10,3 11 6 16 9 N 1006,2 2,9 0,0
18.05.2019 12:00:00 11,9 10,0 11 6 16 9 N 1006,1 3,0 0,0
18.05.2019 11:00:00 11,9 10,5 11 6 14 8 N 1005,9 3,0 0,0
18.05.2019 10:00:00 11,7 10,4 9 5 14 7 N 1005,7 3,1 0,0
18.05.2019 09:00:00 11,4 10,6 10 5 13 7 N 1005,4 2,5 0,0
18.05.2019 08:00:00 10,8 10,3 5 3 9 5 N 1005,2 2,2 0,0
18.05.2019 07:00:00 9,2 8,6 6 4 9 5 NNE 1005,1 1,7 0,0
18.05.2019 06:00:00 9,1 8,5 8 4 13 7 N 1005,1 1,7 0,0
18.05.2019 05:00:00 9,7 9,1 10 5 13 7 N 1005,2 2,0 0,0
18.05.2019 04:00:00 9,7 8,9 4 2 15 8 N 1005,5 2,8 0,0
18.05.2019 03:00:00 10,0 9,4 6 4 11 6 NNE 1005,6 2,3 0,0

tt = Température de l'air
td = dewpoint
ff = Vitesse du vent
fx = gusts
dd = Direction du vent
ppp = reduced air pressure
vv = visibility
rr = Quantités de précipitations

stations d'obs. à proximité